Location: LDNL
(36.4545°S, 141.6685°E)
Time: 11:47:08
(UTC+10:00)

Tiros 1 despin weight - Pass Details

Date: 13 August 2022
Orbit: 590 x 639 km, 48.2° (Epoch: 23 September)

Event Time Altitude Azimuth Distance (km) Brightness Sun altitude
Rises 03:06:53 0° 245° (WSW) 2,942 - -50.5°
Reaches altitude 10° 03:09:48 10° 227° (SW) 2,041 - -50.0°
Maximum altitude 03:13:11 19° 180° (S) 1,528 - -49.4°
Drops below altitude 10° 03:16:36 10° 134° (SE) 2,052 - -48.7°
Exits shadow 03:19:08 - 118° (ESE) 2,826 ? -48.2°
Sets 03:19:33 0° 116° (ESE) 2,962 ? -48.2°
